Date,TemperatureHighF,TemperatureAvgF,TemperatureLowF,DewpointHighF,DewpointAvgF,DewpointLowF,HumidityHigh,HumidityAvg,HumidityLow,PressureMaxIn,PressureMinIn,WindSpeedMaxMPH,WindSpeedAvgMPH,GustSpeedMaxMPH,PrecipitationSumIn
2013-1-1,53,49,45,50,42,29,95,80,52,30.12,29.94,15,1,15,0.13
2013-1-2,51,46,40,50,43,37,97,88,69,30.19,29.90,11,1,11,0.27
2013-1-3,45,41,33,38,36,30,94,83,62,30.27,30.13,6,0,6,0.01
2013-1-4,51,38,27,30,26,21,92,67,32,30.33,30.20,9,0,9,0.01
2013-1-5,50,39,28,28,24,20,77,56,34,30.41,30.28,6,0,6,0.00
2013-1-6,48,43,37,41,36,27,91,76,56,30.28,30.06,7,1,7,0.00
2013-1-7,53,41,30,35,31,28,94,72,42,30.44,30.18,11,0,11,0.01
2013-1-8,57,43,32,42,35,28,90,76,51,30.47,30.36,5,0,5,0.00
2013-1-9,69,53,37,51,44,35,93,75,50,30.44,30.35,7,0,7,0.00
2013-1-10,65,56,49,50,46,38,93,71,44,30.52,30.41,11,0,11,0.00
2013-1-11,52,49,42,51,44,32,97,85,51,30.42,30.15,6,0,6,0.29
2013-1-12,75,59,49,62,55,48,99,88,62,30.17,30.09,7,0,7,0.00
2013-1-13,76,64,53,61,57,52,98,81,55,30.14,30.05,13,2,13,0.01
2013-1-14,75,66,58,63,59,55,89,77,64,30.15,30.07,16,2,16,0.00
2013-1-15,66,50,47,60,48,45,96,91,80,30.20,30.04,12,1,12,0.01
2013-1-16,50,48,45,50,47,45,99,98,96,30.06,29.98,8,0,8,0.24
2013-1-17,51,48,35,51,47,34,99,98,95,30.15,29.84,22,2,22,0.73
2013-1-18,47,38,31,34,29,21,97,74,37,30.54,30.13,10,1,12,0.08
2013-1-19,55,41,25,36,27,22,90,61,30,30.52,30.17,9,1,10,0.00
2013-1-20,65,50,40,35,33,29,80,55,28,30.17,29.98,9,0,9,0.00
2013-1-21,60,47,30,35,28,20,89,50,28,30.09,29.88,10,1,10,0.00
2013-1-22,40,35,30,22,14,0,54,43,19,30.22,29.97,14,1,14,0.00
2013-1-23,41,35,19,17,10,1,73,36,24,30.39,30.08,12,1,12,0.00
2013-1-24,41,33,25,27,15,0,76,49,23,30.51,29.98,23,2,23,0.00
2013-1-25,27,24,20,24,15,4,90,70,41,30.54,30.14,5,0,5,0.00
2013-1-26,39,29,22,34,27,20,94,90,79,30.41,30.12,6,0,6,0.16
2013-1-27,39,33,28,29,27,23,96,81,57,30.60,30.40,8,0,8,0.09
2013-1-28,53,43,32,47,36,28,91,78,66,30.52,30.24,10,1,10,0.04
2013-1-29,74,59,45,57,51,43,94,75,49,30.25,30.06,16,1,16,0.00
2013-1-30,72,67,62,64,61,57,91,81,67,30.07,29.41,33,7,33,0.15
2013-1-31,64,48,38,60,31,16,89,55,26,30.03,29.47,23,2,32,0.13
2013-2-1,44,37,26,28,13,0,62,40,20,30.39,29.91,20,2,20,0.00
2013-2-2,46,34,19,37,13,6,86,47,22,30.42,30.05,20,1,20,0.01
2013-2-3,51,42,34,36,30,22,88,65,36,30.04,29.86,15,1,15,0.00
2013-2-4,48,38,26,27,22,18,82,55,32,30.16,29.99,9,1,9,0.00
2013-2-5,63,49,37,38,33,26,79,56,32,30.03,29.87,16,1,16,0.00
2013-2-6,64,49,33,38,28,20,90,52,19,30.27,29.97,9,0,9,0.00
2013-2-7,50,44,38,44,38,28,95,80,56,30.31,29.94,11,1,11,0.23
2013-2-8,56,46,40,45,41,29,96,83,58,30.07,29.78,16,2,16,0.55
2013-2-9,54,41,31,30,23,14,79,52,21,30.36,30.06,12,1,12,0.00
2013-2-10,54,40,26,42,24,17,85,56,25,30.49,30.20,12,0,12,0.03
2013-2-11,63,57,46,60,54,42,97,89,78,30.21,29.92,19,3,19,0.09
2013-2-12,64,55,46,52,36,19,92,55,18,30.08,29.90,10,1,10,0.00
2013-2-13,50,47,44,48,44,34,97,92,57,29.95,29.63,7,1,7,0.10
2013-2-14,50,42,34,38,33,29,89,69,48,30.08,29.84,9,0,9,0.00
2013-2-15,62,46,31,39,31,27,92,61,29,30.11,29.93,11,0,11,0.00
2013-2-16,45,37,30,35,32,28,95,83,63,29.97,29.82,10,1,10,0.17
2013-2-17,39,31,24,28,15,6,93,56,26,30.31,29.94,14,1,14,0.14
2013-2-18,50,39,18,24,17,9,84,46,23,30.44,30.29,13,2,13,0.03
2013-2-19,53,43,31,50,38,23,93,82,60,30.29,29.88,27,2,27,0.08
2013-2-20,53,41,30,38,22,11,91,51,20,30.14,29.98,9,1,9,0.00
2013-2-21,56,42,26,22,17,11,73,39,17,30.26,30.10,9,0,9,0.00
2013-2-22,44,36,33,36,32,21,95,86,40,30.36,30.14,7,0,7,0.68
2013-2-23,44,40,37,43,40,36,98,97,95,30.14,29.83,7,0,7,0.44
2013-2-24,63,50,42,48,39,30,99,71,31,30.04,29.81,8,0,8,0.01
2013-2-25,43,39,34,32,24,20,69,56,43,30.23,30.04,9,1,9,0.00
2013-2-26,60,47,37,59,44,26,99,90,65,30.14,29.54,14,1,16,1.01
2013-2-27,55,46,43,47,42,36,98,87,51,29.80,29.64,10,1,10,0.00